Weather History for Harbor Springs, MI

Change the Weather History Date:

Thursday, December 5, 2013

  Actual Average (KPLN) Record (KPLN)
Temperature  
Mean Temperature 36 °F -  
Max Temperature 48 °F 35 °F 63 °F (2001)
Min Temperature 22 °F 21 °F -17 °F (1964)
Degree Days  
Heating Degree Days 30    
Moisture  
Dew Point 28 °F    
Average Humidity 79    
Maximum Humidity 96    
Minimum Humidity 71    
Precipitation  
Precipitation 0.00 in - - ()
Sea Level Pressure  
Sea Level Pressure 29.70 in    
Wind  
Wind Speed 18 mph (WSW)    
Max Wind Speed 29 mph    
Max Gust Speed 44 mph    
Visibility 9 miles    
Events Snow    
Averages and records for this station are not official NWS values.
T = Trace of Precipitation, MM = Missing Value Source: NWS Daily Summary

Daily Weather History Graph

Daily Weather History Graph

Search for Another Location

Airport:

Trip Planner

Search our weather history database for the weather conditions in past years. The results will help you decide how hot, cold, wet, or windy it might be!

Date:

Astronomy

Dec. 05, 2013 Rise Set
Actual Time 8:03 AM EST 4:56 PM EST
Civil Twilight 7:30 AM EST 5:30 PM EST
Nautical Twilight 6:52 AM EST 6:07 PM EST
Astronomical Twilight 6:17 AM EST 6:43 PM EST
Moon 10:19 AM EST (12/5) 8:21 PM EST (12/5)
Length of Visible Light 10h 00m
Length of Day
8h 53m
Waxing Crescent, 10% of the Moon is Illuminated
Dec 5
Waxing Crescent
Dec 9
First Quarter
Dec 17
Full
Dec 25
Last Quarter
Jan 1
New

Hourly Weather History & Observations

Time (EST) Temp. Windchill Dew Point Humidity Pressure Visibility Wind Dir Wind Speed Gust Speed Precip Events Conditions
12:14 AM 45.7 °F 41.5 °F 43.9 °F 93% 29.41 in 4.0 mi South 8.1 mph 16.1 mph N/A   Heavy Drizzle
12:35 AM 44.6 °F 39.7 °F 43.5 °F 96% 29.41 in 3.0 mi SSW 9.2 mph - N/A   Drizzle
12:55 AM 46.4 °F 41.5 °F 45.1 °F 95% 29.41 in 5.0 mi SSW 10.4 mph 19.6 mph N/A   Overcast
1:14 AM 48.4 °F - 46.8 °F 94% 29.40 in 5.0 mi SSW 10.4 mph 18.4 mph N/A   Overcast
1:35 AM 48.4 °F - 46.8 °F 94% 29.39 in 5.0 mi SSW 12.7 mph 18.4 mph N/A   Overcast
1:55 AM 48.4 °F - 46.4 °F 93% 29.40 in 5.0 mi SW 11.5 mph 17.3 mph N/A   Overcast
2:14 AM 48.4 °F - 46.0 °F 92% 29.40 in 7.0 mi SW 15.0 mph 18.4 mph N/A   Overcast
2:35 AM 48.4 °F - 45.1 °F 89% 29.40 in 7.0 mi SW 12.7 mph 21.9 mph N/A   Overcast
2:55 AM 48.4 °F - 44.2 °F 86% 29.41 in 10.0 mi SW 23.0 mph 27.6 mph N/A   Overcast
3:14 AM 45.7 °F 38.0 °F 42.3 °F 88% 29.44 in 10.0 mi WSW 19.6 mph 35.7 mph N/A   Overcast
3:35 AM 41.5 °F 32.4 °F 37.9 °F 87% 29.46 in 10.0 mi WSW 20.7 mph 35.7 mph N/A   Overcast
3:55 AM 41.0 °F 31.9 °F 37.4 °F 87% 29.47 in 10.0 mi WSW 19.6 mph 33.4 mph N/A   Overcast
4:14 AM 40.5 °F 32.1 °F 36.9 °F 87% 29.48 in 10.0 mi WSW 16.1 mph 28.8 mph N/A   Overcast
4:35 AM 39.7 °F 30.9 °F 36.1 °F 87% 29.48 in 10.0 mi WSW 17.3 mph 27.6 mph N/A   Overcast
4:55 AM 39.6 °F 31.3 °F 35.8 °F 86% 29.49 in 10.0 mi WSW 15.0 mph 29.9 mph N/A   Overcast
5:14 AM 39.6 °F 29.2 °F 35.2 °F 85% 29.49 in 10.0 mi SW 23.0 mph 32.2 mph N/A   Overcast
5:35 AM 38.5 °F 27.8 °F 33.3 °F 81% 29.48 in 10.0 mi SW 23.0 mph 32.2 mph N/A   Overcast
5:55 AM 38.3 °F 28.7 °F 33.3 °F 82% 29.49 in 10.0 mi WSW 18.4 mph 31.1 mph N/A   Overcast
6:14 AM 38.3 °F 27.6 °F 33.4 °F 83% 29.52 in 10.0 mi WSW 23.0 mph 39.1 mph N/A   Overcast
6:35 AM 37.6 °F 26.6 °F 32.5 °F 82% 29.55 in 10.0 mi WSW 23.0 mph 36.8 mph N/A   Overcast
6:55 AM 36.1 °F 24.7 °F 31.8 °F 84% 29.55 in 10.0 mi WSW 23.0 mph 38.0 mph N/A   Overcast
7:14 AM 35.8 °F 24.8 °F 30.7 °F 82% 29.57 in 10.0 mi SW 20.7 mph 36.8 mph N/A   Overcast
7:35 AM 35.8 °F 24.2 °F 30.2 °F 80% 29.56 in 10.0 mi SW 23.0 mph 32.2 mph N/A   Overcast
7:55 AM 35.8 °F 24.8 °F 30.0 °F 80% 29.57 in 10.0 mi SW 20.7 mph 32.2 mph N/A   Overcast
8:14 AM 35.8 °F 23.7 °F 30.0 °F 80% 29.57 in 10.0 mi SW 25.3 mph 33.4 mph N/A   Overcast
8:35 AM 35.8 °F 24.5 °F 29.3 °F 77% 29.58 in 10.0 mi WSW 21.9 mph 32.2 mph N/A   Overcast
8:55 AM 35.8 °F 24.5 °F 28.4 °F 75% 29.59 in 10.0 mi WSW 21.9 mph 38.0 mph N/A   Overcast
9:15 AM 35.8 °F 24.8 °F 29.7 °F 78% 29.59 in 10.0 mi WSW 20.7 mph 32.2 mph N/A   Overcast
9:35 AM 35.8 °F 24.2 °F 29.3 °F 77% 29.60 in 10.0 mi SW 23.0 mph 39.1 mph N/A   Overcast
9:55 AM 34.7 °F 22.2 °F 28.4 °F 78% 29.62 in 10.0 mi SW 25.3 mph 39.1 mph N/A   Overcast
10:15 AM 34.3 °F 22.3 °F 28.0 °F 78% 29.62 in 10.0 mi SW 23.0 mph 38.0 mph N/A   Overcast
10:35 AM 33.3 °F 20.6 °F 27.3 °F 79% 29.64 in 10.0 mi WSW 24.2 mph 41.4 mph N/A   Overcast
10:55 AM 33.3 °F 19.6 °F 26.4 °F 76% 29.65 in 10.0 mi SW 28.8 mph 40.3 mph N/A   Overcast
11:15 AM 33.3 °F 21.2 °F 26.6 °F 77% 29.66 in 10.0 mi SW 21.9 mph 33.4 mph N/A   Overcast
11:35 AM 33.3 °F 20.3 °F 27.1 °F 78% 29.67 in 10.0 mi WSW 25.3 mph 36.8 mph N/A   Overcast
11:55 AM 31.6 °F 18.1 °F 24.6 °F 75% 29.69 in 10.0 mi WSW 25.3 mph 42.6 mph N/A   Overcast
12:15 PM 30.4 °F 17.0 °F 23.9 °F 77% 29.70 in 10.0 mi WSW 23.0 mph 41.4 mph N/A   Overcast
12:35 PM 29.8 °F 15.5 °F 23.0 °F 76% 29.71 in 10.0 mi WSW 26.5 mph 43.7 mph N/A   Overcast
12:55 PM 28.9 °F 14.8 °F 22.1 °F 76% 29.72 in 10.0 mi WSW 24.2 mph 39.1 mph N/A   Overcast
1:15 PM 29.7 °F 16.4 °F 22.3 °F 74% 29.74 in 10.0 mi WSW 21.9 mph 36.8 mph N/A   Overcast
1:35 PM 29.5 °F 16.8 °F 22.6 °F 76% 29.74 in 10.0 mi WSW 19.6 mph 36.8 mph N/A   Overcast
1:55 PM 29.1 °F 15.4 °F 22.5 °F 76% 29.75 in 10.0 mi WSW 23.0 mph 32.2 mph N/A   Overcast
2:15 PM 29.1 °F 14.2 °F 22.3 °F 76% 29.75 in 10.0 mi WSW 27.6 mph 32.2 mph N/A   Overcast
2:35 PM 29.3 °F 17.0 °F 22.3 °F 75% 29.77 in 10.0 mi WSW 18.4 mph 29.9 mph N/A   Overcast
2:54 PM 28.9 °F 15.4 °F 22.1 °F 76% 29.78 in 10.0 mi WSW 21.9 mph 36.8 mph N/A   Overcast
3:15 PM 28.8 °F 15.9 °F 22.1 °F 76% 29.79 in 10.0 mi WSW 19.6 mph 34.5 mph N/A   Overcast
3:35 PM 28.6 °F 15.6 °F 21.2 °F 74% 29.80 in 10.0 mi WSW 19.6 mph 33.4 mph N/A   Overcast
3:54 PM 28.6 °F 14.3 °F 21.6 °F 75% 29.81 in 10.0 mi WSW 24.2 mph 33.4 mph N/A   Overcast
4:15 PM 28.4 °F 15.4 °F 21.6 °F 76% 29.83 in 10.0 mi WSW 19.6 mph 31.1 mph N/A   Overcast
4:35 PM 28.4 °F 15.1 °F 21.6 °F 76% 29.84 in 10.0 mi WSW 20.7 mph 35.7 mph N/A   Overcast
4:54 PM 28.4 °F 14.7 °F 21.4 °F 75% 29.85 in 10.0 mi WSW 21.9 mph 38.0 mph N/A   Overcast
5:15 PM 28.4 °F 14.4 °F 22.1 °F 77% 29.86 in 10.0 mi SW 23.0 mph 38.0 mph N/A   Overcast
5:35 PM 28.4 °F 14.1 °F 21.7 °F 76% 29.86 in 10.0 mi WSW 24.2 mph 36.8 mph N/A   Overcast
5:54 PM 28.4 °F 14.1 °F 21.7 °F 76% 29.86 in 10.0 mi SW 24.2 mph 34.5 mph N/A   Overcast
6:15 PM 28.4 °F 16.2 °F 21.0 °F 74% 29.87 in 10.0 mi West 17.3 mph 34.5 mph N/A   Overcast
6:35 PM 28.4 °F 15.4 °F 20.7 °F 73% 29.88 in 10.0 mi WSW 19.6 mph 28.8 mph N/A   Overcast
6:54 PM 28.4 °F 15.4 °F 20.7 °F 73% 29.89 in 10.0 mi WSW 19.6 mph 31.1 mph N/A   Overcast
7:15 PM 28.4 °F 16.2 °F 20.7 °F 73% 29.90 in 10.0 mi WSW 17.3 mph 29.9 mph N/A   Overcast
7:34 PM 28.4 °F 15.8 °F 20.3 °F 72% 29.92 in 10.0 mi WSW 18.4 mph 33.4 mph N/A   Overcast
7:55 PM 28.4 °F 16.2 °F 20.5 °F 72% 29.93 in 10.0 mi WSW 17.3 mph 27.6 mph N/A   Overcast
8:15 PM 28.4 °F 14.7 °F 21.2 °F 74% 29.95 in 10.0 mi WSW 21.9 mph 35.7 mph N/A   Overcast
8:34 PM 28.0 °F 15.3 °F 20.5 °F 73% 29.96 in 10.0 mi WSW 18.4 mph 29.9 mph N/A   Overcast
8:55 PM 26.6 °F 13.1 °F 18.9 °F 73% 29.98 in 10.0 mi WSW 19.6 mph 29.9 mph N/A   Overcast
9:15 PM 26.6 °F 13.4 °F 19.4 °F 74% 29.99 in 10.0 mi WSW 18.4 mph 31.1 mph N/A   Overcast
9:34 PM 26.1 °F 12.0 °F 18.9 °F 74% 29.99 in 10.0 mi WSW 20.7 mph 31.1 mph N/A Snow Light Snow
9:55 PM 26.1 °F 14.0 °F 18.1 °F 72% 30.01 in 10.0 mi West 15.0 mph 26.5 mph N/A   Overcast
10:15 PM 25.0 °F 12.2 °F 16.9 °F 71% 30.01 in 10.0 mi West 16.1 mph 32.2 mph N/A Snow Light Snow
10:35 PM 25.0 °F 12.2 °F 17.6 °F 74% 30.02 in 10.0 mi West 16.1 mph 31.1 mph N/A   Overcast
10:55 PM 23.7 °F 9.3 °F 17.4 °F 77% 30.02 in 7.0 mi WSW 19.6 mph 28.8 mph N/A Snow Light Snow
11:15 PM 23.5 °F 10.3 °F 17.1 °F 76% 30.03 in 7.0 mi WSW 16.1 mph 26.5 mph N/A Snow Light Snow
11:35 PM 23.0 °F 10.6 °F 16.7 °F 77% 30.04 in 5.0 mi WSW 13.8 mph 29.9 mph N/A Snow Light Snow
11:55 PM 22.6 °F 8.7 °F 16.0 °F 76% 30.04 in 7.0 mi West 17.3 mph 27.6 mph N/A Snow Light Snow